Weather Roundup
Issued by NWS Springfield, MO

Home | Current Version | Previous Version | Text Only | Print | Product List | Glossary On
Versions: 1 2 3 4 5 6 7 8 9 10 11 12 13 14 15 16 17 18 19 20 21 22 23 24 25 26 27 28 29 30 31 32 33 34 35 36 37 38 39 40 41 42 43 44 45 46 47 48 49 50
000
NZUS99 KSGF 171107
HRRSGF

HOURLY WEATHER
NATIONAL WEATHER SERVICE SPRINGFIELD MO
500 AM CST TUE JAN 17 2017

......SGF CWA......

CITY           SKY/WX    TMP DP  RH WIND       PRES   REMARKS
SPRINGFIELD    CLOUDY    39  35  86 W9        30.02R WCI  33
JOPLIN         CLOUDY    38  35  89 MISG      30.06R
WEST PLAINS    CLOUDY    40  37  89 W10       30.01S WCI  33
ROLLA          CLOUDY    40  37  89 W14       29.97R WCI  32
OSAGE BEACH    CLOUDY    41  37  86 W7        30.01R
BRANSON        CLOUDY    39  36  87 W3        30.03S

......SURROUNDING SGF CWA......

CITY           SKY/WX    TMP DP  RH WIND       PRES   REMARKS
CHANUTE        CLOUDY    36  34  92 W9        30.06S WCI  29
PARSONS        CLOUDY    37  35  92 W7        30.08R FOG     WCI  32
EMPORIA        CLOUDY    34  34 100 NW9       30.05R FOG     WCI  27
GROVE OK       CLOUDY    39  37  93 W7        30.09R FOG     WCI  34
ROGERS AR      CLOUDY    39  35  86 W7        30.06R WCI  34
SILOAM SPRINGS CLOUDY    37  34  87 W8        30.07R WCI  31
HARRISON AR    CLOUDY    39  35  86 SW7       30.03S WCI  34
NEAR YELLVILLE PTCLDY    39  32  75 W6        30.03R WCI  35

......KANSAS AND MISSOURI......

CITY           SKY/WX    TMP DP  RH WIND       PRES   REMARKS
KANSAS CTY INT CLOUDY    34  33  96 W6        30.01R WCI  29
DOWNTOWN KC    CLOUDY    36  34  92 NW7       30.02R FOG     WCI  30
COLUMBIA       CLOUDY    40  39  97 W10       29.96S FOG     WCI  33
SEDALIA        CLOUDY    38  37  97 W12       30.00R WCI  30
ST JOSEPH      CLOUDY    34  34 100 NW14      30.01S FOG     WCI  25
ST LOUIS       CLOUDY    44  37  76 W10       29.94R
SPIRIT OF STL  CLOUDY    43  39  86 W12       29.95S
KIRKSVILLE     CLOUDY    35  35 100 NW13      29.93S WCI  26
WICHITA        CLOUDY    36  33  89 NW8       30.07F WCI  30
TOPEKA         CLOUDY    35  31  85 W6        30.05R WCI  30
OLATHE         CLOUDY    33  33 100 NW9       30.01R FOG     WCI  25

......TENNESSEE......

CITY           SKY/WX    TMP DP  RH WIND       PRES   REMARKS
MEMPHIS        LGT RAIN  56  56 100 W8        30.04R FOG
NASHVILLE      CLOUDY    65  59  81 S21       30.01F

......ARKANSAS.......

CITY           SKY/WX    TMP DP  RH WIND       PRES   REMARKS
FAYETTEVILLE   CLOUDY    37  35  92 SW7       30.07R WCI  32
FT SMITH       MOCLDY    36  33  89 W8        30.11S WCI  30
LITTLE ROCK    CLOUDY    49  46  90 NW7       30.08F

......OKLAHOMA.......

CITY           SKY/WX    TMP DP  RH WIND       PRES   REMARKS
TULSA          CLOUDY    40  35  83 NW9       30.11R WCI  34
PONCA CITY     CLOUDY    38  33  82 NW7       30.10S WCI  33
MCALESTER      PTCLDY    33  30  88 CALM      30.13S
OKLAHOMA CITY  CLOUDY    37  33  85 NW8       30.12R WCI  31

......IOWA............

CITY           SKY/WX    TMP DP  RH WIND       PRES   REMARKS
DES MOINES     DRIZZLE   34  32  92 N13       29.93S FOG     WCI  25
QUAD CITIES    FOG       36  34  92 W9        29.84R VSB 3/4 WCI  29

......ILLINOIS........

CITY           SKY/WX    TMP DP  RH WIND       PRES   REMARKS
QUINCY         CLOUDY    41  40  96 W9        29.90R
CHICAGO        DRZL/FOG  38  37  97 NW9       29.73R VSB 3/4 WCI  31



USA.gov is the U.S. government's official web portal to all federal, state and local government web resources and services.